Lid_Strength_Index
1 3 4 6 10 13 15 14 13 12 12 11 9 9 10 11 10 12 4 4 4 2 -0 -0 -1 -1 -1 -1 -1 -1 -1 -1 -1 -1 -1 -1 -1 -1 -1 -1 -1 -1 -1 -1 -1 -2 -2 -2 -2
3 3 5 8 13 16 15 14 13 11 10 10 9 10 11 12 8 7 7 4 2 -0 -0 -0 -1 -1 -1 -1 -2 -1 -1 -1 -1 -1 -1 -1 -1 -1 -1 -1 -2 -1 -1 -1 -1 -2 -2 -2 -2
3 4 8 11 15 16 15 14 13 11 11 11 11 10 11 11 9 8 7 5 4 4 1 -0 -2 -1 -1 -2 -1 -2 -2 -2 -1 -1 -1 -1 -1 -1 -1 -1 -2 -2 -1 -1 -2 -2 -2 -2 -2
6 7 9 13 15 14 13 13 12 11 11 9 10 12 10 8 8 8 6 6 6 5 4 1 -2 -2 -2 -2 -2 -2 -1 -1 -2 -1 -1 -1 -1 -1 -1 -1 -1 -1 -1 -2 -2 -1 -2 -2 -2
7 10 13 14 15 14 13 12 11 12 12 11 11 12 11 9 8 8 8 7 7 7 5 4 0 -1 -1 -2 -2 -2 -2 -2 -2 -1 -1 -2 -2 -2 -2 -1 -1 -1 -1 -1 -1 -2 -1 -1 -1
9 11 14 16 15 13 13 12 11 12 12 12 12 12 12 10 10 10 9 9 8 8 7 6 4 1 1 -0 -0 -1 -2 -2 -2 -2 -2 -2 -2 -2 -2 -1 -1 -1 -1 -1 -2 -1 -1 -1 -1
11 12 13 14 14 13 12 11 12 13 13 12 12 13 12 11 10 10 10 10 10 9 9 8 8 6 3 2 1 1 1 -0 -2 -2 -2 -2 -1 -1 -1 -1 -1 -2 -2 -2 -1 -1 -1 -1 -1
10 12 13 14 14 14 12 11 11 11 12 11 11 14 15 13 11 11 11 11 11 10 10 10 9 8 7 7 3 2 3 2 0 -1 -1 -1 -1 -1 -0 -0 -1 -1 -2 -1 -1 -1 -1 -1 -1
9 12 14 14 14 13 11 12 11 12 13 13 12 13 12 12 12 12 12 12 11 10 11 11 10 10 9 8 7 5 4 4 2 1 -0 -1 -0 -0 -0 0 -0 -1 -1 -1 -1 -1 -1 -1 -0
11 13 13 12 12 13 12 12 12 13 14 14 14 13 13 13 13 13 14 14 13 13 11 11 11 11 10 8 8 8 7 7 5 3 3 0 -1 -0 -0 1 0 -1 -0 -1 -1 -1 -0 0 0
12 13 12 11 11 11 12 13 12 13 15 14 15 15 14 14 14 14 14 14 14 14 12 12 12 11 11 10 10 10 9 9 6 5 4 3 3 0 -1 -0 -0 -0 1 0 -0 -0 0 0 0
13 11 11 10 11 11 12 12 13 14 14 13 14 14 15 15 15 15 15 15 15 14 13 13 12 12 12 12 12 12 11 10 8 6 5 5 3 5 4 3 2 -0 0 1 0 0 1 1 0
12 11 11 11 11 11 11 13 14 15 14 14 14 14 15 15 15 15 15 15 15 15 14 14 13 13 12 13 13 12 12 12 10 8 7 5 5 6 5 5 5 3 2 -0 0 1 1 1 0
11 11 11 11 11 11 12 14 14 14 14 15 15 15 15 15 15 16 16 16 15 15 15 14 14 13 13 13 13 12 12 11 11 11 9 7 6 7 6 6 6 3 3 3 2 0 1 1 0
11 13 12 12 12 12 12 15 14 14 14 15 16 16 15 15 16 16 16 16 16 16 15 15 14 14 14 14 13 12 12 11 11 11 10 8 8 8 6 7 6 4 4 6 6 3 0 1 1
14 14 15 13 12 13 14 16 14 14 15 16 17 17 16 16 16 16 16 16 16 16 16 15 13 14 13 14 13 12 12 12 11 11 10 10 9 8 7 7 6 6 6 6 6 7 2 1 1
15 16 16 15 12 13 14 16 14 15 15 17 18 18 18 18 17 17 17 17 17 17 16 16 15 14 14 13 13 13 13 12 11 11 11 10 10 9 7 8 7 7 7 7 6 6 8 2 2
17 17 16 16 14 14 15 15 15 14 17 17 18 18 19 18 17 16 16 17 17 17 16 16 15 14 14 13 13 13 13 12 12 12 11 11 10 9 8 8 7 7 6 7 6 6 6 8 3
15 16 16 15 13 14 15 14 16 15 17 19 19 19 19 18 17 16 17 17 17 17 16 16 15 15 14 14 14 15 15 14 13 13 12 12 11 9 9 8 7 6 7 7 6 6 7 7 8
14 16 16 15 14 15 15 16 15 15 16 16 18 20 19 18 18 17 17 18 17 17 17 16 15 15 15 14 14 15 15 14 14 13 13 12 12 11 11 10 9 7 6 6 6 6 6 6 7
16 16 16 16 16 16 17 19 16 17 16 18 18 18 19 18 18 18 18 19 18 17 17 16 15 15 15 15 14 15 15 15 15 14 14 13 12 12 12 11 11 8 6 5 6 6 6 8 7
17 15 15 16 18 21 19 22 19 19 18 18 18 19 19 19 18 18 18 18 18 17 17 16 15 15 15 15 16 16 17 17 16 15 14 14 13 13 12 11 8 6 5 4 5 4 6 6 8
15 15 16 17 19 21 20 22 20 20 20 19 18 19 20 19 18 18 18 17 17 16 17 16 16 16 16 16 16 16 17 16 15 15 15 15 14 13 13 10 9 8 7 4 4 5 4 6 8
14 16 17 18 20 24 21 21 23 22 19 18 18 19 19 19 19 18 17 17 17 17 17 17 17 16 16 16 16 17 17 17 17 16 16 16 16 14 13 12 12 10 8 7 4 4 4 5 8
15 18 21 23 24 22 21 23 18 18 18 18 18 19 20 19 19 18 18 18 17 17 17 17 17 17 16 17 17 17 17 17 17 17 17 17 17 16 16 14 13 12 10 9 8 4 5 6 8
16 17 20 24 24 19 22 23 20 19 20 18 17 19 20 20 19 18 18 18 18 17 17 17 18 17 17 17 17 17 17 17 17 17 17 17 17 17 16 14 14 14 12 9 8 4 4 7 9
17 19 17 21 31 28 22 21 19 21 21 21 21 20 21 20 19 18 18 18 18 18 18 18 18 17 17 18 18 18 17 17 17 17 17 17 17 16 15 16 16 14 12 12 9 9 5 7 8
17 16 20 20 25 28 22 22 20 22 22 22 21 21 21 20 19 18 18 18 18 18 18 18 18 18 18 18 19 18 18 18 17 17 18 18 17 17 17 17 16 16 15 14 12 10 5 8 10
19 19 19 19 19 23 24 19 19 20 19 21 21 20 20 20 19 18 18 18 18 18 19 19 20 19 19 19 19 19 19 18 18 18 18 18 17 17 18 18 17 16 15 14 13 11 9 9 10
17 17 17 20 22 21 21 21 17 18 18 19 20 20 20 19 19 18 19 19 19 19 20 20 20 20 20 20 20 20 19 19 19 19 18 18 18 18 18 18 17 17 17 16 14 12 12 9 11